Location: Newark
(48.3831°N, 4.1956°E)
Time: 13:28:17
(UTC+00:00)

Envisat - Pass Details

Date: 17 November 2019
Orbit: 764 x 766 km, 98.1° (Epoch: 08 December)

Event Time Altitude Azimuth Distance (km) Brightness Sun altitude
Rises 05:32:46 0° 25° (NNE) 3,243 6.4 -13.3°
Reaches altitude 10° 05:35:36 10° 41° (NE) 2,311 5.8 -12.8°
Maximum altitude 05:39:30 22° 91° (E) 1,641 5.8 -12.2°
Drops below altitude 10° 05:43:21 10° 141° (SE) 2,297 6.4 -11.6°
Sets 05:46:10 0° 157° (SSE) 3,218 6.8 -11.1°
